Flag for Canada Weather past 2 weeks in Fort Nelson, British Columbia, Canada

37 °F

Passing clouds.

Feels Like: 35 °F
Forecast: 23 / 45 °F
Wind: 3 mph from Southeast

Location: Fort Nelson

Current Time: Oct 6, 2015 at 12:21:11 PM

Latest Report: Oct 6, 2015 at 12:00 PM

Visibility: 30 mi

Pressure: 30.06 "Hg

Humidity: 65%

Dew point: 27 °F

Location of Fort NelsonLocation

Historic Weather in Fort Nelson — Graph


Fort Nelson temperature yesterday

Maximum temperature yesterday: 50 °F (at 3:00 PM)
Minimum temperature yesterday: 28 °F (at 11:00 PM)
Average temperature yesterday: 40 °F

Past Weeks' High & Low Weather Summary

High72 °F (Sep 29, 4:00 PM)100% (Sep 23, 4:00 AM)30.63 "Hg (Sep 23, 4:00 AM)
Low21 °F (Oct 6, 7:00 AM)25% (Sep 27, 4:00 PM)29.58 "Hg (Sep 30, 2:00 AM)
Average41 °F73%30.00 "Hg
* Reported Sep 21 12:00 Noon — Oct 6 11:00 AM, Fort Nelson, Weather by CustomWeather, © 2015

Note: Actual official high and low records may vary slightly from our data, if they occured in-between our weather recording intervals... More about our weather records


Fort Nelson weather history for previous 24 hours

Time TempWeatherWind HumidityBarometerVisibility
11:00 AM
Tue, Oct 6
36 °FPassing clouds.2 mph70%30.08 "Hg30 mi
10:00 AM30 °FPassing clouds.No wind80%30.09 "Hg30 mi
9:00 AM27 °FPassing clouds.No wind86%30.09 "Hg30 mi
8:00 AM23 °FPassing clouds.2 mph86%30.09 "Hg20 mi
7:00 AM21 °FPassing clouds.No wind86%30.08 "Hg15 mi
6:00 AM23 °FPassing clouds.No wind86%30.08 "Hg15 mi
5:00 AM23 °FClear.2 mph86%30.08 "Hg15 mi
4:00 AM25 °FClear.2 mph86%30.08 "Hg15 mi
3:00 AM25 °FClear.3 mph93%30.08 "Hg15 mi
2:00 AM27 °FClear.3 mph80%30.08 "Hg15 mi
1:00 AM27 °FClear.No wind80%30.09 "Hg15 mi
12:00 AM28 °FClear.3 mph80%30.09 "Hg15 mi
11:00 PM
Mon, Oct 5
28 °FClear.5 mph80%30.10 "Hg15 mi
10:00 PM30 °FClear.2 mph75%30.11 "Hg15 mi
9:00 PM32 °FPassing clouds.2 mph75%30.12 "Hg15 mi
8:00 PM36 °FPassing clouds.No wind70%30.12 "Hg15 mi
7:00 PM43 °FPassing clouds.2 mph53%30.13 "Hg20 mi
6:00 PM50 °FPassing clouds.6 mph37%30.12 "Hg30 mi
5:00 PM50 °FPassing clouds.5 mph37%30.13 "Hg30 mi
4:00 PM50 °FPassing clouds.3 mph37%30.14 "Hg30 mi
3:00 PM50 °FPassing clouds.6 mph37%30.15 "Hg30 mi
2:00 PM48 °FPassing clouds.6 mph40%30.16 "Hg30 mi
1:00 PM48 °FPassing clouds.6 mph43%30.18 "Hg30 mi
12:00 PM45 °FPassing clouds.7 mph49%30.20 "Hg30 mi
Weather by CustomWeather, © 2015

See weather overviewHow to use our weather pages